Location: Central Falls
(41.8900°N, 71.3929°W)
Time: 14:21:21
(UTC+00:00)

Vanguard 1 - Pass Details

Date: 09 December 2023
Orbit: 653 x 3826 km, 34.3° (Epoch: 24 February)

Event Time Altitude Azimuth Distance (km) Brightness Sun altitude
Rises 20:14:11 0° 215° (SW) 4,517 15.4 8.2°
Reaches altitude 10° 20:16:57 10° 207° (SSW) 3,873 14.7 7.9°
Maximum altitude 20:26:44 39° 143° (SE) 3,216 12.8 6.5°
Drops below altitude 10° 20:43:01 10° 84° (E) 6,367 13.7 4.0°
Sets 20:49:10 0° 78° (ENE) 7,711 14.0 3.1°
